Terug naar catalogus

KUIPER-00405

ActiefCommunicatieLEO
NORAD 68923·PAYLOAD·🇺🇸 United States

Gelanceerd Apr 30, 2026 vanaf Guiana Space Centre

Loading…

Volgende Passages (komende 24 uur)

TLE

VersSource: CelesTrak SupGP

Epoch: Sep 15, 2026, 04:17 UTC

1 68923C 26098E   26258.17859954  .00003871  00000+0  50684-3 0  2586
2 68923  51.9023  22.7289 0000937 186.0143  49.8837 14.79916226    19

Volg KUIPER-00405 in realtime met AllMySat

Download on the App Store